Location: ??
(35.1476°N, 128.3847°E)
Time: 17:12:24
(UTC+00:00)

Daily predictions for brighter satellites

Satellite Brightness Start Highest point End
(mag) Time Altitude Azimuth Time Altitude Azimuth Time Altitude Azimuth
Cosmos 2219 Rocket 3.1 12:02:42 20° SE 12:05:17 28° ESE 12:09:58 10° NE
Cosmos 1328 4.5 12:04:14 24° SE 12:05:52 35° E 12:09:30 10° NNE
Cosmos 2263 Rocket 2.8 12:01:08 10° NNW 12:06:31 51° WSW 12:11:41 11° S
Cosmos 2360 Rocket 2.2 12:01:08 10° SSW 12:06:46 87° WNW 12:12:27 10° NNE
Cosmos 1825 Rocket 4.1 12:04:53 22° SSE 12:07:15 40° E 12:11:24 10° NNE
Meteor 2-1 Rocket 4.3 12:04:01 10° N 12:09:53 81° E 12:14:35 17° SSE
Cosmos 2333 Rocket 2.7 12:10:05 19° SSE 12:13:32 37° ESE 12:18:43 10° NE
Cosmos 1461 3.2 12:08:47 10° NNW 12:13:33 82° WSW 12:16:16 25° SSE
USA 215 3.2 12:08:16 10° NE 12:14:49 71° SE 12:21:19 10° SW
DELTA 2 R/B (1) 3.8 12:12:09 10° SW 12:17:27 46° SSE 12:22:46 10° ENE
Terra 3.7 12:17:15 13° E 12:18:33 15° ENE 12:21:08 10° NNE
Cosmos 1812 Rocket 3.4 12:15:29 10° N 12:19:50 89° ENE 12:22:19 25° S
Cosmos 1703 3.1 12:18:52 28° S 12:20:45 66° E 12:24:36 10° NNE
Cosmos 1455 2.2 12:16:59 10° N 12:20:48 61° E 12:22:07 37° SSE
SAR-Lupe-2 4.0 12:18:12 10° NNE 12:21:36 40° E 12:22:00 38° ESE
Delta 2 Rocket 2.7 12:19:06 10° W 12:22:30 80° N 12:23:47 35° E
Cosmos 1818 4.5 12:22:45 10° SW 12:27:59 50° WNW 12:33:17 10° NNE
OAO 1 Rocket 4.4 12:25:01 10° W 12:30:21 90° NNE 12:33:48 23° E
Cosmos 773 Rocket 3.9 12:29:14 18° S 12:33:12 69° ESE 12:38:28 10° NNE
IGS 5A 3.4 12:33:16 42° SE 12:34:32 67° ENE 12:38:40 10° N
Meteor 1-11 4.3 12:34:20 31° SSE 12:36:53 56° E 12:42:24 10° NNE
ERS-1 Rocket 3.6 12:36:52 32° ESE 12:38:20 40° ENE 12:43:01 10° N
ATLAS 5 CENTAUR R/B 3.2 12:36:43 10° WSW 12:40:25 34° NW 12:44:26 10° NNE
Resurs 01 Rocket 2.8 12:37:51 17° SSW 12:40:51 37° W 12:44:57 10° NNW
Cosmos 2278 Rocket 4.4 12:39:33 10° NNE 12:41:38 12° NE 12:43:43 10° ENE
Cosmos 1844 Rocket 2.7 12:42:33 10° NNW 12:48:06 67° ENE 12:49:56 42° SE
Cosmos 2181 Rocket 4.4 12:42:08 10° N 12:48:10 45° E 12:50:03 36° ESE
Cosmos-2242 2.9 12:49:33 10° N 12:53:55 88° W 12:54:49 56° S
Meteor 2-10 Rocket 4.3 12:49:51 10° NNW 12:54:46 46° W 12:57:51 22° SSW
Cosmos 1315 Rocket 4.1 12:52:31 10° NNE 12:55:42 28° ENE 12:55:42 28° ENE
Spot 2 Rocket 3.7 12:55:47 35° S 12:57:49 65° WSW 13:02:53 10° NNW
USA 81 4.0 12:56:40 48° SSE 12:58:03 68° E 13:03:18 10° N
SPOT 5 3.2 12:57:46 47° ESE 12:58:45 55° ENE 13:03:33 10° N
Cosmos 2221 4.3 12:55:37 10° NNE 12:58:14 19° ENE 12:58:14 19° ENE
USA 245 3.6 13:00:37 44° W 13:00:37 44° W 13:04:02 10° NNW
Landsat 7 4.4 13:07:24 37° SSW 13:08:52 51° W 13:13:30 10° NNW
SPOT 1/Viking Rocket 3.7 13:08:43 44° SSW 13:10:14 66° WSW 13:15:23 10° NNW
OAO 3 Rocket 3.2 13:10:17 10° W 13:15:04 65° SSW 13:15:04 65° SSW
Cosmos 967 Rocket 4.4 13:13:42 41° S 13:15:58 69° ESE 13:22:25 10° NNE
Cosmos 1400 Rocket 3.7 13:15:39 10° NNW 13:19:22 40° W 13:19:35 40° WSW
NOSS 3-3 (A) 4.4 13:16:50 10° SW 13:22:26 57° NW 13:28:40 10° NNE
NOSS 3-3 (C) 4.4 13:16:55 10° SW 13:22:32 58° NW 13:28:48 10° NNE
BREEZE M DEB (TANK) 3.8 13:20:36 10° SW 13:24:40 83° NW 13:40:56 10° NE
Cosmos 1980 3.9 13:27:59 51° E 13:27:59 51° E 13:33:01 10° NNE
NOSS 0 Rocket 3.8 13:27:54 61° SSE 13:28:47 70° ESE 13:34:55 10° NNE
Cosmos 923 Rocket 4.1 13:30:51 59° ENE 13:30:51 59° ENE 13:35:36 10° NNE
COSMOS 2428 3.3 13:27:57 21° SW 13:31:35 54° WNW 13:37:09 10° NNE
OAO 2 Rocket 3.3 13:28:12 10° W 13:33:33 90° SE 13:33:46 83° E
Cosmos 2344 3.6 13:36:20 51° SE 13:37:09 53° ESE 13:44:26 10° NE
Cosmos 1844 4.1 13:35:40 10° NNW 13:41:13 51° WSW 13:41:58 48° SW
Cosmos 1842 Rocket 4.1 13:39:45 10° N 13:43:11 55° N 13:43:11 55° N
Cosmos 2184 Rocket 3.9 13:43:26 64° S 13:44:32 87° W 13:50:50 10° N
Meteor 1-27 4.3 13:40:01 10° NNW 13:45:44 70° W 13:46:28 63° SW
Cosmos 2237 Rocket 2.1 13:46:07 71° E 13:46:07 71° E 13:51:33 10° NNE
ATLAS 2AS CENTAUR R/B 4.3 13:40:05 10° NNW 13:46:13 27° NE 13:49:24 19° E
Cosmos 2219 Rocket 3.6 13:44:17 11° SW 13:49:02 34° WNW 13:54:06 10° N
Atlas Centaur 2 2.8 13:42:46 10° W 13:48:32 52° SSW 13:48:32 52° SSW
Terra 2.4 13:56:08 50° W 13:56:08 50° W 14:00:27 10° NNW
Cosmos 2333 Rocket 4.0 13:53:04 10° WSW 13:57:49 27° WNW 14:02:38 10° N
BREEZE-M DEB (TANK) 4.1 13:55:08 10° NW 13:58:59 27° N 13:58:59 27° N
ATLAS CENTAUR R/B 3.1 13:55:46 10° NNW 13:57:36 27° NNW 13:57:36 27° NNW
Meteor 2-2 Rocket 4.1 13:55:53 10° N 14:01:38 88° NNW 14:01:38 88° NNW
DELTA 2 R/B (1) 3.7 13:58:14 10° W 14:03:49 70° NNW 14:05:40 42° NE
Thor Agena Rocket 3.8 14:06:15 10° NNE 14:10:23 59° NNE 14:10:23 59° NNE
Cosmos 2154 Rocket 4.1 14:24:00 64° WSW 14:24:21 65° W 14:30:32 10° N
USA 267 3.5 14:24:46 52° E 14:26:04 61° NE 14:32:30 10° NW
Cosmos 2112 Rocket 4.5 14:26:54 59° NW 14:26:54 59° NW 14:31:47 10° N
Cosmos 2278 Rocket 2.3 14:20:47 10° NNW 14:25:49 71° NNW 14:25:49 71° NNW
Cosmos 2341 Rocket 4.0 14:27:22 67° ENE 14:27:22 67° ENE 14:33:05 10° NNE
SL-16 R/B 3.0 14:31:32 43° NE 14:31:32 43° NE 14:35:31 10° NNE
Nadezhda 3 Rocket 3.9 14:23:59 10° N 14:30:17 81° W 14:30:17 81° W
EO 1 Delta rocket 4.4 14:25:50 10° N 14:31:01 80° NW 14:31:01 80° NW
Cosmos 1943 Rocket 4.5 14:32:54 10° NNE 14:35:39 13° NE 14:37:15 12° ENE
Cosmos 2221 4.5 14:32:35 10° NNW 14:35:06 24° WNW 14:35:06 24° WNW
SL-8 Rocket 4.1 14:47:53 68° NE 14:47:53 68° NE 14:53:20 10° N
Cosmos 2056 Rocket 4.2 14:42:02 10° N 14:46:22 52° NNE 14:46:22 52° NNE
NOSS 3-4 (A) 3.8 15:02:38 10° NNW 15:09:55 89° ENE 15:10:10 85° SE
NOSS 3-4 (C) 3.8 15:02:45 10° NNW 15:10:01 88° ENE 15:10:18 84° SE
Cosmos 2369 Rocket 4.0 15:14:57 10° N 15:19:06 21° ENE 15:20:05 20° ENE
ATLAS 2AS CENTAUR R/B 3.0 15:30:31 10° NW 15:36:49 58° W 15:36:49 58° W
CZ-2D R/B 4.2 15:49:44 10° NE 15:52:17 16° E 15:52:17 16° E
Cosmos 1821 Rocket 4.1 16:07:17 70° NNW 16:07:17 70° NNW 16:12:45 10° N
Cosmos 1943 3.6 16:08:54 60° NNE 16:08:54 60° NNE 16:13:30 10° NNE
Lacrosse 5 4.3 16:11:59 13° E 16:11:59 13° E 16:12:56 10° ENE
SL-16 R/B 4.2 16:13:23 17° WNW 16:14:26 18° NW 16:18:15 10° NNW
Cosmos 44 Rocket 4.5 16:16:57 38° NNE 16:16:57 38° NNE 16:19:55 10° NNE
Cosmos 2123 Rocket 4.4 16:10:35 10° N 16:16:37 52° E 16:16:47 52° E
Cosmos 1943 Rocket 2.7 16:14:22 10° NNW 16:18:44 54° NNW 16:18:44 54° NNW
RESURS DK-1 4.4 16:17:37 10° N 16:20:01 26° NNE 16:20:01 26° NNE
SL-16 R/B 3.6 16:31:12 30° ESE 16:33:15 39° ENE 16:38:57 10° N
Cosmos 1605 Rocket 4.1 16:35:51 66° ESE 16:36:04 67° E 16:42:21 10° NNE
CZ-4C R/B 3.5 16:31:28 10° NNW 16:38:51 57° NE 16:45:22 17° SE
Cosmos 1633 Rocket 4.3 16:43:03 40° NNE 16:43:03 40° NNE 16:45:56 10° N
Cosmos 1331 Rocket 4.4 16:38:45 10° NNW 16:43:08 61° NNW 16:43:08 61° NNW
Lacrosse 5 rocket 3.5 16:41:10 10° NNW 16:44:10 21° NE 16:44:18 21° NE
COSMOS 2455 3.5 16:41:38 10° NW 16:46:01 43° WNW 16:46:01 43° WNW
IRAS Rocket 4.3 16:48:08 71° ENE 16:48:08 71° ENE 16:53:34 10° N
Cosmos 1607 3.8 16:49:05 87° NW 16:49:05 87° NW 16:55:22 10° NNE
Iridium 4 Rocket 3.8 16:49:38 75° E 16:49:40 75° E 16:55:27 10° N
Cosmos 1934 Rocket 4.3 16:56:42 51° WNW 16:56:42 51° WNW 17:02:35 10° N
CZ-4B R/B 4.3 16:52:48 10° NNE 16:57:29 41° E 16:57:29 41° E
Meteor 2-20 Rocket 4.3 16:52:22 10° N 16:58:33 87° E 16:58:54 80° SSE
Cosmos 2369 Rocket 3.0 16:57:59 10° NNW 17:01:50 38° WNW 17:01:50 38° WNW
Resurs 1-4 Rocket 2.0 16:59:17 10° NNE 17:04:26 82° NE 17:04:26 82° NE
Cosmos 292 Rocket 4.5 17:00:29 10° N 17:05:08 48° ENE 17:05:23 47° E
SeaSat 1 3.2 17:07:45 10° N 17:12:14 42° NW 17:12:14 42° NW
Cosmos 1933 Rocket 4.2 17:14:40 53° NE 17:14:40 53° NE 17:18:18 10° NNE
ADEOS II 3.0 17:11:43 10° NNE 17:16:38 39° E 17:17:30 36° ESE
Meteor 1-27 Rocket 3.9 17:12:21 10° NNW 17:17:28 56° WNW 17:17:28 56° WNW
Meteor 1-25 Rocket 4.1 17:18:35 74° SSE 17:19:03 82° E 17:24:43 10° N
Cosmos 1656 Rocket 3.6 17:15:48 10° NNW 17:20:47 68° WNW 17:20:47 68° WNW
Cosmos 1302 Rocket 3.9 17:17:07 10° NNW 17:22:04 78° WNW 17:22:04 78° WNW
Cosmos 1238 Rocket 3.9 17:23:10 62° WSW 17:23:38 64° W 17:29:18 10° N
MOZ.5/SAFIR/RUBIN 5/SL-8 4.5 17:27:43 42° WNW 17:27:43 42° WNW 17:31:15 10° NNW
SL-4 R/B 4.3 17:32:29 11° NNW 17:32:29 11° NNW 17:32:44 10° NNW
IRS-1D 3.4 17:27:19 10° NNE 17:32:17 70° ESE 17:32:44 65° SE
CZ-2D R/B 2.4 17:28:09 10° N 17:33:18 52° WNW 17:33:36 51° W
UNK 4.1 17:35:09 53° WNW 17:35:09 53° WNW 17:38:58 10° NNW
Cosmos 1447 Rocket 4.4 17:28:19 10° N 17:34:36 75° W 17:35:55 57° SSW
DELTA 2 R/B (1) 3.5 17:33:29 20° WNW 17:37:26 90° SSE 17:43:04 10° ESE
ISS -0.8 17:39:18 11° NW 17:39:59 11° NNW 17:41:06 10° N
Cosmos 2100 Rocket 3.9 17:45:12 49° SSW 17:47:04 84° W 17:53:24 10° N
COSMOS 2406 4.4 17:47:28 25° SSE 17:49:55 36° ESE 17:55:07 10° NE
Meteor 1-20 Rocket 4.4 17:50:16 46° W 17:50:53 48° WNW 17:56:16 10° N
NPP 4.2 17:46:35 10° N 17:51:37 41° WNW 17:52:20 39° W
Meteor 1-19 Rocket 4.5 17:45:57 10° N 17:51:37 65° E 17:54:36 28° SSE
Lacrosse 5 2.1 17:51:10 51° W 17:52:02 59° NW 17:57:04 10° NNE
Cosmos 1802 Rocket 4.0 17:51:56 40° S 17:54:25 83° E 18:00:50 10° N
Cosmos 724 4.3 17:55:00 50° SW 17:56:26 70° WNW 18:02:14 10° NNE
CBERS-1 4.0 17:52:48 10° N 17:57:53 65° WNW 17:58:53 53° SW
Cosmos 972 Rocket 4.3 17:53:12 10° NNW 17:59:05 54° W 17:59:59 48° SW
Cosmos 1515 4.1 17:55:48 10° N 17:59:35 59° E 18:00:12 51° SE
SEDSat Delta rocket 3.9 17:57:34 40° WSW 17:59:56 63° S 18:06:14 10° ESE
Abrixas rocket 4.5 18:00:08 16° NNW 18:00:08 16° NNW 18:02:02 10° NNE
Cosmos 2242 Rocket 3.6 17:56:34 10° NNW 18:01:06 65° W 18:01:25 62° WSW
GOES 2 Rocket 4.2 18:04:23 41° SSW 18:05:18 44° S 18:10:27 10° ESE
Meteor 1-14 Rocket 4.2 18:05:00 46° SW 18:06:28 64° W 18:12:00 10° N
Cosmos 2082 Rocket 4.4 18:03:22 10° SE 18:07:04 18° E 18:10:47 10° ENE
IDEFIX/ARIANE 42P 3.7 18:02:42 10° NNE 18:07:30 37° E 18:10:55 17° SSE
IRS-1C 4.0 18:05:06 10° N 18:10:28 82° WNW 18:12:24 41° SSW
Cosmos 407 Rocket 3.8 18:10:16 33° S 18:12:35 63° ESE 18:17:52 10° NNE
SL-16 R/B 3.4 18:16:17 29° WSW 18:16:51 29° W 18:22:10 10° NW
Cosmos 2251 Rocket 4.5 18:16:05 28° W 18:17:16 31° WNW 18:21:54 10° N
Cosmos 2061 Rocket 4.0 18:15:05 32° SSW 18:18:16 77° W 18:24:38 10° N
Cosmos 1459 Rocket 4.2 18:17:07 36° SW 18:19:06 48° W 18:24:59 10° N
ARIANE 5 R/B 2.4 18:16:01 10° NNE 18:21:05 87° WNW 18:23:23 34° SSW
Aureole 1 Rocket 4.0 18:21:10 25° SSE 18:22:47 38° E 18:26:56 10° NNE
CZ-4C R/B 3.7 18:20:35 10° NW 18:27:20 33° WSW 18:30:20 26° SW
Cosmos 1733 Rocket 4.0 18:25:39 17° SSE 18:28:41 44° E 18:32:48 10° NNE
Cosmos 1833 Rocket 3.3 18:25:19 20° S 18:28:58 50° ESE 18:34:22 10° NNE
Cosmos 1725 Rocket 3.9 18:25:41 27° SSW 18:29:12 77° W 18:35:25 10° N
Okean 3 3.9 18:27:35 10° N 18:31:43 59° E 18:35:27 12° SSE
Cosmos 2221 Rocket 4.3 18:27:27 10° N 18:31:46 51° E 18:36:02 10° SSE
Tsikada Rocket 4.3 18:25:50 10° N 18:32:14 72° E 18:38:38 10° SSE
Cosmos 1140 Rocket 3.6 18:29:57 26° S 18:32:52 74° ESE 18:38:04 10° NNE
SL-8 R/B 3.7 18:36:45 33° SW 18:38:52 79° SE 18:43:40 10° NE
Cosmos 1536 3.2 18:36:46 21° S 18:39:19 64° E 18:43:21 10° NNE
Cosmos 405 Rocket 4.1 18:39:01 23° W 18:39:20 23° WNW 18:42:30 10° NNW
Cosmos 614 Rocket 4.4 18:40:37 29° SW 18:42:49 46° WNW 18:47:43 10° N
GPS 2-04 Rocket1 2.5 18:41:40 31° W 18:43:22 89° N 18:47:21 10° E
Resurs 1-4 Rocket 4.3 18:42:27 10° NW 18:43:39 11° WNW 18:44:51 10° WNW
ASTRO E2 3.1 18:44:19 34° SW 18:45:24 44° S 18:49:12 10° E
Okean 1-7 4.0 18:45:22 10° NNW 18:49:08 28° W 18:50:10 25° WSW
Cosmos 1023 Rocket 4.5 18:49:23 23° SSW 18:52:35 68° WNW 18:57:47 10° NNE
MSX 3.9 18:50:11 10° NNE 18:55:55 77° ESE 19:01:37 10° S
ADEOS II 3.5 18:52:02 10° NNW 18:56:01 22° WNW 18:58:25 17° WSW
Cosmos 220 Rocket 4.4 18:52:31 10° N 18:56:45 62° ENE 19:00:54 10° SSE
Fregat R/B Cluster 11 4.2 18:57:09 24° SSW 18:58:57 82° ESE 19:07:07 10° NNE
CZ-2D R/B 4.1 18:57:02 10° N 19:01:12 43° WNW 19:03:45 21° SW
H-2A R/B 2.1 18:59:36 10° SSE 19:04:05 84° WSW 19:08:32 10° NNW
Meteor 2-4 Rocket 4.2 19:00:26 10° NNW 19:06:02 44° W 19:11:31 10° SSW
Meteor 1-28 Rocket 4.1 19:06:36 21° SW 19:08:07 29° W 19:11:23 10° NW
Cosmos 1656 3.6 19:06:08 10° NNW 19:11:34 87° ENE 19:17:01 10° SSE
Meteor 1-13 Rocket 4.3 19:08:21 10° NNW 19:14:02 60° W 19:19:35 10° S
PSLV R/B 3.6 19:17:20 10° NNE 19:21:38 84° E 19:25:57 10° S
PAYLOAD A 4.3 19:16:39 10° NNE 19:21:57 78° ESE 19:27:20 10° S
CZ-4B R/B 3.3 19:19:30 10° SE 19:22:36 34° ENE 19:25:46 10° N
Cosmos 1954 Rocket 4.1 19:18:14 12° SSW 19:22:55 60° WNW 19:28:08 10° N
DELTA 2 R/B (1) 4.4 19:18:46 10° W 19:23:32 29° SW 19:28:17 10° SSE
Cosmos 1743 2.8 19:21:00 10° S 19:24:46 80° E 19:28:35 10° N
Cosmos 1980 Rocket 4.2 19:22:31 10° N 19:27:38 33° ENE 19:32:41 10° SE
Cosmos 1378 Rocket 3.8 19:24:42 10° N 19:29:06 76° E 19:33:30 10° S
Cosmos 1437 Rocket 4.4 19:29:34 10° NW 19:32:16 17° W 19:34:45 11° SW
COSMOS 2406 4.4 19:29:33 11° WSW 19:34:13 28° WNW 19:39:09 10° N
CZ-2C R/B 4.1 19:30:59 10° NNW 19:34:23 26° WNW 19:37:46 10° SW
Cosmos 1666 4.3 19:32:06 12° WSW 19:34:33 19° WNW 19:37:21 10° NNW
Landsat 5 3.9 19:31:42 10° S 19:35:33 39° W 19:39:19 10° NNW
SAR-Lupe-4 3.8 19:32:14 10° SSE 19:35:46 72° ENE 19:39:20 10° N
Lacrosse 5 4.2 19:33:44 10° NW 19:35:58 13° NNW 19:38:13 10° N
CZ-2C R/B 2.3 19:33:17 10° N 19:38:11 85° W 19:42:52 10° SSW
Cosmos 1782 Rocket 4.0 19:41:18 10° S 19:45:43 67° E 19:50:09 10° NNE
SEDSat Delta rocket 4.3 19:40:07 10° W 19:46:15 41° SSW 19:51:48 10° SE
IDEFIX/ARIANE 42P 3.9 19:42:50 10° NNW 19:46:49 23° WNW 19:50:47 10° WSW
Cosmos 1674 Rocket 3.9 19:44:28 10° NNW 19:48:38 45° W 19:52:45 10° SSW
Cosmos 2082 Rocket 2.5 19:45:04 10° SW 19:50:38 53° WNW 19:56:14 10° NNE
